﻿_id,日時,平均風速(m/s),平均風向,最大瞬間風速(m/s),最大風速時風向,気温(℃),湿度(%),10分間移動積算雨量(mm),1時間移動積算雨量(mm),日雨量(mm),累計雨量(mm),日射(日積算)(MJ/m2),日照(日積算)(min),現地気圧(hPa),海面気圧(hPa)
1,2020-04-06T00:00:00,1.2,北,2.7,北,5.7,70.9,0,0,0,0,17.41,408,1007,1021.4
2,2020-04-06T00:01:00,1.3,北北東,2.7,北,5.7,70.8,0,0,0,0,0,0,1007,1021.4
3,2020-04-06T00:02:00,1.3,北,2.7,北,5.6,71,0,0,0,0,0,0,1007.1,1021.5
4,2020-04-06T00:03:00,1.3,北,2.7,北,5.5,70.7,0,0,0,0,0,0,1007,1021.4
5,2020-04-06T00:04:00,1.2,北,2.7,北,5.5,71.2,0,0,0,0,0,0,1007,1021.4
6,2020-04-06T00:05:00,1.2,北,2.7,北,5.5,71.6,0,0,0,0,0,0,1007,1021.4
7,2020-04-06T00:06:00,1.2,北,2.7,北,5.6,72.2,0,0,0,0,0,0,1006.9,1021.3
8,2020-04-06T00:07:00,1.3,北,2.7,北,5.8,72.5,0,0,0,0,0,0,1006.9,1021.3
9,2020-04-06T00:08:00,1.3,北,2.8,北北東,5.8,71.6,0,0,0,0,0,0,1006.9,1021.3
10,2020-04-06T00:09:00,1.3,北,2.8,北北東,5.6,70.6,0,0,0,0,0,0,1006.9,1021.3
11,2020-04-06T00:10:00,1.3,北,2.8,北北東,5.5,70.9,0,0,0,0,0,0,1006.9,1021.3
12,2020-04-06T00:11:00,1.2,北,2.8,北北東,5.3,71.4,0,0,0,0,0,0,1006.9,1021.3
13,2020-04-06T00:12:00,1.3,北北西,2.8,北北東,5.2,71.4,0,0,0,0,0,0,1006.9,1021.3
14,2020-04-06T00:13:00,1.2,北北西,2.8,北北東,5.4,72.6,0,0,0,0,0,0,1006.9,1021.3
15,2020-04-06T00:14:00,1.2,北北西,2.8,北北東,5.2,72.5,0,0,0,0,0,0,1006.9,1021.3
16,2020-04-06T00:15:00,1.2,北西,2.8,北北東,5.3,72.6,0,0,0,0,0,0,1006.9,1021.3
17,2020-04-06T00:16:00,1.1,北西,2.8,北北東,5.3,72.5,0,0,0,0,0,0,1006.8,1021.2
18,2020-04-06T00:17:00,1.2,西北西,2.8,北北東,5.3,72.1,0,0,0,0,0,0,1006.9,1021.3
19,2020-04-06T00:18:00,1.2,西北西,2.4,西北西,5.3,72.1,0,0,0,0,0,0,1006.9,1021.3
20,2020-04-06T00:19:00,1.3,西北西,2.4,西北西,5.4,72.4,0,0,0,0,0,0,1006.9,1021.3
21,2020-04-06T00:20:00,1.3,北西,2.4,西北西,5.5,72.2,0,0,0,0,0,0,1006.9,1021.3
22,2020-04-06T00:21:00,1.4,北西,2.4,西北西,5.5,72.1,0,0,0,0,0,0,1006.8,1021.2
23,2020-04-06T00:22:00,1.3,北北西,2.4,西北西,5.5,71.3,0,0,0,0,0,0,1006.8,1021.2
24,2020-04-06T00:23:00,1.4,北北西,2.4,西北西,5.6,71.4,0,0,0,0,0,0,1006.9,1021.3
25,2020-04-06T00:24:00,1.4,北,2.4,西北西,5.6,71.2,0,0,0,0,0,0,1006.9,1021.3
26,2020-04-06T00:25:00,1.4,北,2.4,西北西,5.3,70.6,0,0,0,0,0,0,1006.9,1021.3
27,2020-04-06T00:26:00,1.4,北,2.4,西北西,5.1,71.1,0,0,0,0,0,0,1006.9,1021.3
28,2020-04-06T00:27:00,1.3,北,2.4,北,5.2,72.1,0,0,0,0,0,0,1006.9,1021.3
29,2020-04-06T00:28:00,1.2,北,2.4,北,5.3,73,0,0,0,0,0,0,1006.9,1021.3
30,2020-04-06T00:29:00,1.1,北,2.2,北西,5.2,72.9,0,0,0,0,0,0,1006.8,1021.2
31,2020-04-06T00:30:00,1,北,2.2,北西,5,72.8,0,0,0,0,0,0,1006.8,1021.2
32,2020-04-06T00:31:00,1,北,2.2,北西,4.8,73.1,0,0,0,0,0,0,1006.8,1021.2
33,2020-04-06T00:32:00,1,北,2.2,北西,4.9,73.9,0,0,0,0,0,0,1006.8,1021.2
34,2020-04-06T00:33:00,1,北,2.2,北西,4.9,74.5,0,0,0,0,0,0,1006.8,1021.2
35,2020-04-06T00:34:00,1.1,北,2.4,北北東,5,74.6,0,0,0,0,0,0,1006.8,1021.2
36,2020-04-06T00:35:00,1.2,北,2.5,北北東,4.9,74.4,0,0,0,0,0,0,1006.8,1021.2
37,2020-04-06T00:36:00,1.3,北,2.5,北北東,5.1,74.9,0,0,0,0,0,0,1006.8,1021.2
38,2020-04-06T00:37:00,1.4,北,2.5,北北東,5,74.3,0,0,0,0,0,0,1006.8,1021.2
39,2020-04-06T00:38:00,1.5,北,2.5,北北東,4.9,73.8,0,0,0,0,0,0,1006.8,1021.2
40,2020-04-06T00:39:00,1.5,北,2.5,北北東,4.8,73.5,0,0,0,0,0,0,1006.8,1021.2
41,2020-04-06T00:40:00,1.5,北北東,2.5,北北東,5.1,74.1,0,0,0,0,0,0,1006.8,1021.2
42,2020-04-06T00:41:00,1.5,北北東,2.5,北北東,4.8,73.4,0,0,0,0,0,0,1006.8,1021.2
43,2020-04-06T00:42:00,1.5,北,2.5,北北東,4.8,73.2,0,0,0,0,0,0,1006.8,1021.2
44,2020-04-06T00:43:00,1.4,北,2.5,北北東,4.7,73.7,0,0,0,0,0,0,1006.8,1021.2
45,2020-04-06T00:44:00,1.3,北,2.5,北北東,4.6,74.1,0,0,0,0,0,0,1006.8,1021.2
46,2020-04-06T00:45:00,1.3,北,2.3,北北東,4.6,74.6,0,0,0,0,0,0,1006.8,1021.2
47,2020-04-06T00:46:00,1.1,北,2.2,北北東,4.6,75.1,0,0,0,0,0,0,1006.8,1021.2
48,2020-04-06T00:47:00,1,北,2.2,北北東,4.7,75.5,0,0,0,0,0,0,1006.8,1021.2
49,2020-04-06T00:48:00,0.9,北,2.2,北北東,4.7,75.7,0,0,0,0,0,0,1006.8,1021.2
50,2020-04-06T00:49:00,0.8,北,2.1,北北東,4.6,75.8,0,0,0,0,0,0,1006.8,1021.2
51,2020-04-06T00:50:00,0.8,北,2.1,北北東,4.5,75.8,0,0,0,0,0,0,1006.8,1021.2
52,2020-04-06T00:51:00,0.8,北,2.1,北北東,4.5,76.2,0,0,0,0,0,0,1006.8,1021.2
53,2020-04-06T00:52:00,0.8,北,2.1,北北東,4.5,76.4,0,0,0,0,0,0,1006.8,1021.2
54,2020-04-06T00:53:00,0.8,北,2.1,北北東,4.4,76.5,0,0,0,0,0,0,1006.8,1021.2
55,2020-04-06T00:54:00,0.8,北,2.1,北北東,4.5,76.3,0,0,0,0,0,0,1006.8,1021.2
56,2020-04-06T00:55:00,0.8,北,2.1,北北西,4.6,76.9,0,0,0,0,0,0,1006.8,1021.2
57,2020-04-06T00:56:00,0.9,北,2.1,北北西,4.5,76.9,0,0,0,0,0,0,1006.8,1021.2
58,2020-04-06T00:57:00,0.9,北,2.1,北北西,4.6,76.5,0,0,0,0,0,0,1006.8,1021.2
59,2020-04-06T00:58:00,1,北北西,2.1,北北西,4.6,77,0,0,0,0,0,0,1006.8,1021.2
60,2020-04-06T00:59:00,1,北,2.1,北北西,4.5,75.7,0,0,0,0,0,0,1006.8,1021.2
61,2020-04-06T01:00:00,1,北,2.1,北北西,4.4,75.9,0,0,0,0,0,0,1006.8,1021.2
62,2020-04-06T01:01:00,0.9,北北西,2.1,北北西,4.5,76.7,0,0,0,0,0,0,1006.7,1021.1
63,2020-04-06T01:02:00,0.9,北北西,2.1,北北西,4.5,76.8,0,0,0,0,0,0,1006.7,1021.1
64,2020-04-06T01:03:00,0.9,北北西,2.1,北北西,4.4,76.3,0,0,0,0,0,0,1006.7,1021.1
65,2020-04-06T01:04:00,0.8,北北西,2.1,北北西,4.4,76.6,0,0,0,0,0,0,1006.7,1021.1
66,2020-04-06T01:05:00,0.8,北北西,2.1,北北東,4.4,76.5,0,0,0,0,0,0,1006.7,1021.1
67,2020-04-06T01:06:00,0.7,北北西,1.7,北,4.5,76.7,0,0,0,0,0,0,1006.7,1021.1
68,2020-04-06T01:07:00,0.7,北,1.7,北,4.5,76.8,0,0,0,0,0,0,1006.7,1021.1
69,2020-04-06T01:08:00,0.8,北,2,北北東,4.5,76.6,0,0,0,0,0,0,1006.7,1021.1
70,2020-04-06T01:09:00,0.8,北,2,北北東,4.5,76.3,0,0,0,0,0,0,1006.8,1021.2
71,2020-04-06T01:10:00,0.8,北,2,北北東,4.5,76,0,0,0,0,0,0,1006.8,1021.2
72,2020-04-06T01:11:00,0.8,北,2,北北東,4.5,75.7,0,0,0,0,0,0,1006.8,1021.2
73,2020-04-06T01:12:00,0.8,北,2,北北東,4.6,75.8,0,0,0,0,0,0,1006.8,1021.2
74,2020-04-06T01:13:00,0.8,北,2,北北東,4.6,75.6,0,0,0,0,0,0,1006.8,1021.2
75,2020-04-06T01:14:00,0.8,北,2,北北東,4.5,75.5,0,0,0,0,0,0,1006.8,1021.2
76,2020-04-06T01:15:00,0.8,北,2,北北東,4.4,75.3,0,0,0,0,0,0,1006.8,1021.2
77,2020-04-06T01:16:00,0.8,北,2,北北東,4.4,75.6,0,0,0,0,0,0,1006.8,1021.2
78,2020-04-06T01:17:00,0.7,北,2,北北東,4.5,76.1,0,0,0,0,0,0,1006.8,1021.2
79,2020-04-06T01:18:00,0.6,北,1.8,北,4.4,75.8,0,0,0,0,0,0,1006.8,1021.2
80,2020-04-06T01:19:00,0.7,北,1.8,北,4.5,76.1,0,0,0,0,0,0,1006.8,1021.2
81,2020-04-06T01:20:00,0.7,北,1.8,北,4.7,76.2,0,0,0,0,0,0,1006.8,1021.2
82,2020-04-06T01:21:00,0.7,北,1.8,北,4.6,75.8,0,0,0,0,0,0,1006.8,1021.2
83,2020-04-06T01:22:00,0.8,北,1.8,北,4.6,75.3,0,0,0,0,0,0,1006.8,1021.2
84,2020-04-06T01:23:00,0.8,北,1.6,北北東,4.6,75.1,0,0,0,0,0,0,1006.8,1021.2
85,2020-04-06T01:24:00,0.9,北,2.1,北北東,4.7,75.2,0,0,0,0,0,0,1006.8,1021.2
86,2020-04-06T01:25:00,1,北,2.1,北北東,4.7,75.1,0,0,0,0,0,0,1006.8,1021.2
87,2020-04-06T01:26:00,1.1,北,2.1,北北東,4.7,74.9,0,0,0,0,0,0,1006.8,1021.2
88,2020-04-06T01:27:00,1.1,北,2.1,北北東,4.5,74.4,0,0,0,0,0,0,1006.8,1021.2
89,2020-04-06T01:28:00,1.1,北,2.1,北北東,4.3,74.4,0,0,0,0,0,0,1006.8,1021.3
90,2020-04-06T01:29:00,1,北,2.1,北北東,4.1,74.4,0,0,0,0,0,0,1006.7,1021.2
91,2020-04-06T01:30:00,0.9,北,2.1,北北東,4,75.4,0,0,0,0,0,0,1006.7,1021.2
92,2020-04-06T01:31:00,1,北,2.1,北北東,4.3,76.7,0,0,0,0,0,0,1006.7,1021.2
93,2020-04-06T01:32:00,1,北,2.1,北北東,4.5,77,0,0,0,0,0,0,1006.7,1021.1
94,2020-04-06T01:33:00,1,北,2.1,北北東,4.5,76.2,0,0,0,0,0,0,1006.7,1021.1
95,2020-04-06T01:34:00,0.9,北,2.1,北北東,4.7,76.2,0,0,0,0,0,0,1006.7,1021.1
96,2020-04-06T01:35:00,0.8,北,1.8,北西,4.8,76.1,0,0,0,0,0,0,1006.7,1021.1
97,2020-04-06T01:36:00,0.9,北北西,1.9,北西,4.7,75.4,0,0,0,0,0,0,1006.7,1021.1
98,2020-04-06T01:37:00,0.9,北北西,1.9,北西,4.7,75.1,0,0,0,0,0,0,1006.7,1021.1
99,2020-04-06T01:38:00,0.9,北北西,1.9,北西,4.5,75,0,0,0,0,0,0,1006.6,1021
100,2020-04-06T01:39:00,0.9,北,1.9,北西,4.4,74.6,0,0,0,0,0,0,1006.6,1021
101,2020-04-06T01:40:00,0.9,北,1.9,北西,4.5,75.3,0,0,0,0,0,0,1006.7,1021.1
102,2020-04-06T01:41:00,0.9,北,1.9,北西,4.7,76.2,0,0,0,0,0,0,1006.7,1021.1
103,2020-04-06T01:42:00,0.8,北北西,1.9,北西,4.7,75.3,0,0,0,0,0,0,1006.6,1021
104,2020-04-06T01:43:00,0.9,北北西,1.9,北西,4.5,74.9,0,0,0,0,0,0,1006.7,1021.1
105,2020-04-06T01:44:00,0.8,北北西,1.9,北西,4.6,75.5,0,0,0,0,0,0,1006.7,1021.1
106,2020-04-06T01:45:00,0.8,北北西,1.9,北西,4.4,75.8,0,0,0,0,0,0,1006.7,1021.1
107,2020-04-06T01:46:00,0.7,北西,1.8,北西,4.4,75.7,0,0,0,0,0,0,1006.7,1021.1
108,2020-04-06T01:47:00,0.6,北西,1.8,北西,4.1,75.5,0,0,0,0,0,0,1006.7,1021.2
109,2020-04-06T01:48:00,0.6,北西,1.8,北西,4.3,76.3,0,0,0,0,0,0,1006.6,1021
110,2020-04-06T01:49:00,0.6,北西,1.8,北西,4.5,76.9,0,0,0,0,0,0,1006.6,1021
111,2020-04-06T01:50:00,0.6,西北西,1.8,北西,4.6,77.1,0,0,0,0,0,0,1006.6,1021
112,2020-04-06T01:51:00,0.5,西北西,1.8,北西,4.6,76.4,0,0,0,0,0,0,1006.7,1021.1
113,2020-04-06T01:52:00,0.4,西北西,1.4,北西,4.6,76.3,0,0,0,0,0,0,1006.6,1021
114,2020-04-06T01:53:00,0.4,北西,1,北西,4.5,75.6,0,0,0,0,0,0,1006.6,1021
115,2020-04-06T01:54:00,0.4,北西,1,北西,4.4,75.2,0,0,0,0,0,0,1006.5,1020.9
116,2020-04-06T01:55:00,0.4,北北西,1,北西,4.4,75.6,0,0,0,0,0,0,1006.6,1021
117,2020-04-06T01:56:00,0.4,北北西,1,北西,4.5,76.2,0,0,0,0,0,0,1006.6,1021
118,2020-04-06T01:57:00,0.5,北,1.1,北北東,4.5,76,0,0,0,0,0,0,1006.6,1021
119,2020-04-06T01:58:00,0.5,北,1.1,北北東,4.3,75.5,0,0,0,0,0,0,1006.6,1021
120,2020-04-06T01:59:00,0.5,北,1.1,北北東,4.3,75.9,0,0,0,0,0,0,1006.5,1020.9
121,2020-04-06T02:00:00,0.4,北,1.1,北北東,4.2,76.2,0,0,0,0,0,0,1006.5,1021
122,2020-04-06T02:01:00,0.4,北,1.1,北北東,4.1,76.6,0,0,0,0,0,0,1006.5,1021
123,2020-04-06T02:02:00,0.4,北,1.1,北北東,4.1,77.2,0,0,0,0,0,0,1006.5,1021
124,2020-04-06T02:03:00,0.4,北,1.1,北北東,4.5,78.1,0,0,0,0,0,0,1006.5,1020.9
125,2020-04-06T02:04:00,0.5,北,1.1,北北東,4.1,77.4,0,0,0,0,0,0,1006.4,1020.9
126,2020-04-06T02:05:00,0.4,北北西,1.1,北北東,4,76.9,0,0,0,0,0,0,1006.4,1020.9
127,2020-04-06T02:06:00,0.5,北北西,1.2,西北西,4,77.3,0,0,0,0,0,0,1006.4,1020.9
128,2020-04-06T02:07:00,0.5,北西,1.2,西北西,4,77.8,0,0,0,0,0,0,1006.5,1021
129,2020-04-06T02:08:00,0.5,北西,1.2,西北西,3.8,77.9,0,0,0,0,0,0,1006.5,1021
130,2020-04-06T02:09:00,0.5,北北西,1.2,西北西,4,78.6,0,0,0,0,0,0,1006.5,1021
131,2020-04-06T02:10:00,0.6,北西,1.2,西北西,3.9,79,0,0,0,0,0,0,1006.5,1021
132,2020-04-06T02:11:00,0.6,北西,1.3,北西,4,79,0,0,0,0,0,0,1006.5,1021
133,2020-04-06T02:12:00,0.6,北西,1.4,北西,3.9,78.8,0,0,0,0,0,0,1006.5,1021
134,2020-04-06T02:13:00,0.6,北西,1.4,北西,4.1,79.1,0,0,0,0,0,0,1006.5,1021
135,2020-04-06T02:14:00,0.6,北西,1.4,北西,4,78.8,0,0,0,0,0,0,1006.5,1021
136,2020-04-06T02:15:00,0.6,北西,1.4,北西,3.8,78.3,0,0,0,0,0,0,1006.5,1021
137,2020-04-06T02:16:00,0.5,北西,1.4,北西,3.7,78.2,0,0,0,0,0,0,1006.5,1021
138,2020-04-06T02:17:00,0.5,北西,1.4,北西,3.9,79.2,0,0,0,0,0,0,1006.5,1021
139,2020-04-06T02:18:00,0.6,北北西,1.4,北西,3.9,79.5,0,0,0,0,0,0,1006.5,1021
140,2020-04-06T02:19:00,0.6,北北西,1.4,北西,4.1,79.5,0,0,0,0,0,0,1006.5,1021
141,2020-04-06T02:20:00,0.6,北,1.4,北西,4,78.9,0,0,0,0,0,0,1006.5,1021
142,2020-04-06T02:21:00,0.5,北,1.4,北西,4,78.5,0,0,0,0,0,0,1006.5,1021
143,2020-04-06T02:22:00,0.5,北,1.4,北東,4,78.7,0,0,0,0,0,0,1006.5,1021
144,2020-04-06T02:23:00,0.5,北,1.4,北東,3.9,78.5,0,0,0,0,0,0,1006.5,1021
145,2020-04-06T02:24:00,0.5,北,1.4,北東,3.9,78.4,0,0,0,0,0,0,1006.5,1021
146,2020-04-06T02:25:00,0.6,北,1.4,北東,3.9,78.3,0,0,0,0,0,0,1006.5,1021
147,2020-04-06T02:26:00,0.7,北,1.7,北,3.8,78.4,0,0,0,0,0,0,1006.5,1021
148,2020-04-06T02:27:00,0.7,北,1.7,北,3.9,78.9,0,0,0,0,0,0,1006.4,1020.9
149,2020-04-06T02:28:00,0.7,北,1.7,北,4.1,79.2,0,0,0,0,0,0,1006.4,1020.9
150,2020-04-06T02:29:00,0.8,北,1.7,北,4.1,78.8,0,0,0,0,0,0,1006.4,1020.9
151,2020-04-06T02:30:00,0.8,北,1.7,北,4,78.2,0,0,0,0,0,0,1006.4,1020.9
152,2020-04-06T02:31:00,0.9,北北東,1.7,北,4,78,0,0,0,0,0,0,1006.4,1020.9
153,2020-04-06T02:32:00,0.9,北北東,1.7,北,3.8,77.8,0,0,0,0,0,0,1006.4,1020.9
154,2020-04-06T02:33:00,0.8,北,1.7,北,3.8,78.3,0,0,0,0,0,0,1006.4,1020.9
155,2020-04-06T02:34:00,0.8,北,1.7,北,3.6,78.1,0,0,0,0,0,0,1006.3,1020.8
156,2020-04-06T02:35:00,0.8,北,1.7,北,3.8,79.1,0,0,0,0,0,0,1006.3,1020.8
157,2020-04-06T02:36:00,0.7,北,1.7,北北東,3.6,79.2,0,0,0,0,0,0,1006.4,1020.9
158,2020-04-06T02:37:00,0.7,北北西,1.5,北東,3.7,79.2,0,0,0,0,0,0,1006.4,1020.9
159,2020-04-06T02:38:00,0.6,北北西,1.5,北東,3.6,79.6,0,0,0,0,0,0,1006.3,1020.8
160,2020-04-06T02:39:00,0.6,北西,1.5,北東,3.6,79.8,0,0,0,0,0,0,1006.3,1020.8
161,2020-04-06T02:40:00,0.5,北西,1.1,西北西,3.7,80.2,0,0,0,0,0,0,1006.3,1020.8
162,2020-04-06T02:41:00,0.5,西北西,1.1,西北西,3.8,80.3,0,0,0,0,0,0,1006.3,1020.8
163,2020-04-06T02:42:00,0.5,西北西,1.1,西北西,3.7,80,0,0,0,0,0,0,1006.3,1020.8
164,2020-04-06T02:43:00,0.5,西北西,1.1,西北西,3.7,79.9,0,0,0,0,0,0,1006.3,1020.8
165,2020-04-06T02:44:00,0.5,西北西,1.1,西北西,3.7,79.8,0,0,0,0,0,0,1006.3,1020.8
166,2020-04-06T02:45:00,0.5,西北西,1.1,西北西,3.7,80,0,0,0,0,0,0,1006.2,1020.7
167,2020-04-06T02:46:00,0.6,西北西,1.1,西北西,3.6,80.1,0,0,0,0,0,0,1006.2,1020.7
168,2020-04-06T02:47:00,0.5,北西,1.1,西北西,3.5,80,0,0,0,0,0,0,1006.2,1020.7
169,2020-04-06T02:48:00,0.5,北西,1.1,西北西,3.6,80.4,0,0,0,0,0,0,1006.3,1020.8
170,2020-04-06T02:49:00,0.4,北西,1,西,3.8,80.8,0,0,0,0,0,0,1006.2,1020.7
171,2020-04-06T02:50:00,0.4,北西,0.8,北,3.8,80.7,0,0,0,0,0,0,1006.2,1020.7
172,2020-04-06T02:51:00,0.4,北西,0.8,北,3.6,79.8,0,0,0,0,0,0,1006.2,1020.7
173,2020-04-06T02:52:00,0.4,北西,0.8,北,3.6,79.7,0,0,0,0,0,0,1006.2,1020.7
174,2020-04-06T02:53:00,0.3,北西,0.8,北,3.7,80.1,0,0,0,0,0,0,1006.2,1020.7
175,2020-04-06T02:54:00,0.3,北西,0.8,北,3.8,80.5,0,0,0,0,0,0,1006.2,1020.7
176,2020-04-06T02:55:00,0.3,北西,0.8,北,3.7,80.1,0,0,0,0,0,0,1006.1,1020.6
177,2020-04-06T02:56:00,0.3,北西,0.8,北,3.6,79.5,0,0,0,0,0,0,1006.2,1020.7
178,2020-04-06T02:57:00,0.2,静穏,0.8,北,3.5,79.6,0,0,0,0,0,0,1006.1,1020.6
179,2020-04-06T02:58:00,0.2,静穏,0.4,西北西,3.5,79.7,0,0,0,0,0,0,1006.1,1020.6
180,2020-04-06T02:59:00,0.2,静穏,0.4,西北西,3.4,80.1,0,0,0,0,0,0,1006.1,1020.6
181,2020-04-06T03:00:00,0.2,静穏,0.6,北東,3.5,80.4,0,0,0,0,0,0,1006.1,1020.6
182,2020-04-06T03:01:00,0.2,静穏,0.8,北北東,3.8,81.7,0,0,0,0,0,0,1006.1,1020.6
183,2020-04-06T03:02:00,0.3,北北西,0.8,北北東,3.8,81.2,0,0,0,0,0,0,1006.1,1020.6
184,2020-04-06T03:03:00,0.3,北北西,0.8,北北東,3.6,80,0,0,0,0,0,0,1006.1,1020.6
185,2020-04-06T03:04:00,0.2,静穏,0.8,北北東,3.6,79.8,0,0,0,0,0,0,1006.1,1020.6
186,2020-04-06T03:05:00,0.3,北北西,0.8,北北東,3.5,79.6,0,0,0,0,0,0,1006.1,1020.6
187,2020-04-06T03:06:00,0.3,北北西,0.8,北北東,3.3,79.8,0,0,0,0,0,0,1006.1,1020.6
188,2020-04-06T03:07:00,0.3,北,0.8,北北東,3.4,80.1,0,0,0,0,0,0,1006.1,1020.6
189,2020-04-06T03:08:00,0.4,北,1,北北東,3.6,80.8,0,0,0,0,0,0,1006.1,1020.6
190,2020-04-06T03:09:00,0.5,北,1.3,北北東,3.5,81.1,0,0,0,0,0,0,1006.1,1020.6
191,2020-04-06T03:10:00,0.5,北,1.4,北,3.6,80.8,0,0,0,0,0,0,1006.1,1020.6
192,2020-04-06T03:11:00,0.5,北,1.4,北,3.5,80.7,0,0,0,0,0,0,1006,1020.5
193,2020-04-06T03:12:00,0.5,北,1.4,北,3.3,80.3,0,0,0,0,0,0,1006,1020.5
194,2020-04-06T03:13:00,0.5,北,1.4,北,3.5,80.6,0,0,0,0,0,0,1006,1020.5
195,2020-04-06T03:14:00,0.5,北北東,1.4,北,3.6,81.1,0,0,0,0,0,0,1006,1020.5
196,2020-04-06T03:15:00,0.5,北北東,1.4,北,3.4,80.8,0,0,0,0,0,0,1006,1020.5
197,2020-04-06T03:16:00,0.5,北北東,1.4,北,3.4,80.1,0,0,0,0,0,0,1005.9,1020.4
198,2020-04-06T03:17:00,0.5,北北東,1.4,北,3.5,80.7,0,0,0,0,0,0,1006,1020.5
199,2020-04-06T03:18:00,0.5,北北東,1.4,北,3.4,80.5,0,0,0,0,0,0,1006,1020.5
200,2020-04-06T03:19:00,0.4,北,1.4,北,3.3,80.7,0,0,0,0,0,0,1006,1020.5
201,2020-04-06T03:20:00,0.4,北,1.1,北東,3.3,80.9,0,0,0,0,0,0,1005.9,1020.4
202,2020-04-06T03:21:00,0.4,北,1.1,北東,3.3,81.2,0,0,0,0,0,0,1005.9,1020.4
203,2020-04-06T03:22:00,0.4,北,1.1,北東,3.3,81.4,0,0,0,0,0,0,1006,1020.5
204,2020-04-06T03:23:00,0.4,北,1.1,北東,3.3,81.5,0,0,0,0,0,0,1006,1020.5
205,2020-04-06T03:24:00,0.4,北,1.1,北東,3.4,81.7,0,0,0,0,0,0,1006,1020.5
206,2020-04-06T03:25:00,0.4,北,1.1,北東,3.5,81.9,0,0,0,0,0,0,1006,1020.5
207,2020-04-06T03:26:00,0.5,北,1.4,北北東,3.6,82.2,0,0,0,0,0,0,1006,1020.5
208,2020-04-06T03:27:00,0.6,北,1.4,北北東,3.5,81.5,0,0,0,0,0,0,1005.9,1020.4
209,2020-04-06T03:28:00,0.6,北,1.4,北北東,3.5,81.2,0,0,0,0,0,0,1005.9,1020.4
210,2020-04-06T03:29:00,0.7,北北東,1.4,北北東,3.6,81.5,0,0,0,0,0,0,1005.9,1020.4
211,2020-04-06T03:30:00,0.7,北北東,1.4,北北東,3.6,81.3,0,0,0,0,0,0,1005.9,1020.4
212,2020-04-06T03:31:00,0.7,北北東,1.4,北北東,3.5,80.6,0,0,0,0,0,0,1005.9,1020.4
213,2020-04-06T03:32:00,0.7,北北東,1.4,北北東,3.6,80.7,0,0,0,0,0,0,1005.9,1020.4
214,2020-04-06T03:33:00,0.7,北北東,1.4,北北東,3.4,80.8,0,0,0,0,0,0,1005.9,1020.4
215,2020-04-06T03:34:00,0.7,北北東,1.4,北北東,3.2,80.7,0,0,0,0,0,0,1005.9,1020.4
216,2020-04-06T03:35:00,0.7,北北東,1.4,北北東,3.4,80.8,0,0,0,0,0,0,1005.9,1020.4
217,2020-04-06T03:36:00,0.7,北北東,1.4,北北東,3.7,82.4,0,0,0,0,0,0,1005.9,1020.4
218,2020-04-06T03:37:00,0.6,北北東,1.4,北北東,3.8,82.5,0,0,0,0,0,0,1005.9,1020.4
219,2020-04-06T03:38:00,0.6,北,1.4,北北東,3.9,81.6,0,0,0,0,0,0,1005.9,1020.4
220,2020-04-06T03:39:00,0.6,北,1.4,北北東,3.5,80.2,0,0,0,0,0,0,1005.9,1020.4
221,2020-04-06T03:40:00,0.6,北北西,1.4,北北東,3.3,79.6,0,0,0,0,0,0,1005.9,1020.4
222,2020-04-06T03:41:00,0.6,北北西,1.4,北北東,3.4,80.2,0,0,0,0,0,0,1005.9,1020.4
223,2020-04-06T03:42:00,0.6,北北西,1.4,北北東,3.3,80.9,0,0,0,0,0,0,1005.9,1020.4
224,2020-04-06T03:43:00,0.6,北,1.4,北北東,3.4,81.1,0,0,0,0,0,0,1005.9,1020.4
225,2020-04-06T03:44:00,0.7,北,1.9,北北東,3.5,81.7,0,0,0,0,0,0,1005.9,1020.4
226,2020-04-06T03:45:00,0.8,北,1.9,北北東,3.7,81.9,0,0,0,0,0,0,1005.9,1020.4
227,2020-04-06T03:46:00,0.8,北北西,1.9,北北東,3.8,81.5,0,0,0,0,0,0,1005.9,1020.4
228,2020-04-06T03:47:00,0.8,北,1.9,北北東,3.7,80.8,0,0,0,0,0,0,1005.9,1020.4
229,2020-04-06T03:48:00,0.8,北,1.9,北北東,3.8,80.1,0,0,0,0,0,0,1005.9,1020.4
230,2020-04-06T03:49:00,0.8,北,1.9,北北東,3.6,79.9,0,0,0,0,0,0,1006,1020.5
231,2020-04-06T03:50:00,0.8,北,1.9,北北東,3.6,79.6,0,0,0,0,0,0,1006,1020.5
232,2020-04-06T03:51:00,0.9,北,1.9,北北東,3.7,80.1,0,0,0,0,0,0,1006,1020.5
233,2020-04-06T03:52:00,0.9,北北西,1.9,北北東,3.7,79.8,0,0,0,0,0,0,1006,1020.5
234,2020-04-06T03:53:00,0.9,北北西,1.9,北北東,3.6,79.8,0,0,0,0,0,0,1006,1020.5
235,2020-04-06T03:54:00,0.7,北北西,1.7,西,3.4,79.4,0,0,0,0,0,0,1006,1020.5
236,2020-04-06T03:55:00,0.6,北北西,1.7,西,3.2,79.2,0,0,0,0,0,0,1006,1020.5
237,2020-04-06T03:56:00,0.6,北西,1.8,西,3.4,80.1,0,0,0,0,0,0,1006,1020.5
238,2020-04-06T03:57:00,0.7,北西,1.8,西,3.4,80.9,0,0,0,0,0,0,1006,1020.5
239,2020-04-06T03:58:00,0.7,西北西,1.8,西,3.4,80.9,0,0,0,0,0,0,1006,1020.5
240,2020-04-06T03:59:00,0.7,西,1.8,西,3.5,81.4,0,0,0,0,0,0,1006,1020.5
241,2020-04-06T04:00:00,0.6,西,1.8,西,3.6,81.3,0,0,0,0,0,0,1006,1020.5
242,2020-04-06T04:01:00,0.5,西,1.8,西,3.6,81.1,0,0,0,0,0,0,1006,1020.5
243,2020-04-06T04:02:00,0.5,西,1.8,西,3.5,80.6,0,0,0,0,0,0,1006,1020.5
244,2020-04-06T04:03:00,0.5,西北西,1.8,西,3.5,80.1,0,0,0,0,0,0,1006,1020.5
245,2020-04-06T04:04:00,0.5,西北西,1.8,西,3.8,80.9,0,0,0,0,0,0,1006.1,1020.6
246,2020-04-06T04:05:00,0.4,西北西,1.8,西,3.6,80,0,0,0,0,0,0,1006.1,1020.6
247,2020-04-06T04:06:00,0.3,北西,1.6,西南西,3.6,79.6,0,0,0,0,0,0,1006.1,1020.6
248,2020-04-06T04:07:00,0.3,北,1.2,南西,3.8,80.3,0,0,0,0,0,0,1006.1,1020.6
249,2020-04-06T04:08:00,0.4,北,1.3,北東,3.8,80.6,0,0,0,0,0,0,1006.1,1020.6
250,2020-04-06T04:09:00,0.4,北北東,1.3,北東,3.7,79.8,0,0,0,0,0,0,1006.1,1020.6
251,2020-04-06T04:10:00,0.3,北北東,1.3,北東,3.3,78.5,0,0,0,0,0,0,1006.2,1020.7
252,2020-04-06T04:11:00,0.3,北東,1.3,北東,3.3,78.6,0,0,0,0,0,0,1006.2,1020.7
253,2020-04-06T04:12:00,0.3,北東,1.3,北東,3.5,80.2,0,0,0,0,0,0,1006.1,1020.6
254,2020-04-06T04:13:00,0.3,北北東,1.3,北東,3.5,80.4,0,0,0,0,0,0,1006.1,1020.6
255,2020-04-06T04:14:00,0.3,北東,1.3,北東,3.4,80.3,0,0,0,0,0,0,1006.1,1020.6
256,2020-04-06T04:15:00,0.3,東北東,1.3,北東,3.4,80.7,0,0,0,0,0,0,1006.1,1020.6
257,2020-04-06T04:16:00,0.3,東北東,1.3,北東,3.4,80.6,0,0,0,0,0,0,1006.1,1020.6
258,2020-04-06T04:17:00,0.3,東北東,1.3,北東,3.6,81.5,0,0,0,0,0,0,1006.1,1020.6
259,2020-04-06T04:18:00,0.2,静穏,1,東,3.6,82.1,0,0,0,0,0,0,1006.2,1020.7
260,2020-04-06T04:19:00,0.2,静穏,0.9,北北東,3.8,82.4,0,0,0,0,0,0,1006.2,1020.7
261,2020-04-06T04:20:00,0.3,北東,1.3,南南西,3.8,82.1,0,0,0,0,0,0,1006.2,1020.7
262,2020-04-06T04:21:00,0.3,北北東,1.4,南西,3.8,81.3,0,0,0,0,0,0,1006.1,1020.6
263,2020-04-06T04:22:00,0.4,東北東,1.4,南西,3.6,80.7,0,0,0,0,0,0,1006.2,1020.7
264,2020-04-06T04:23:00,0.4,東北東,1.4,南西,3.6,80.3,0,0,0,0,0,0,1006.2,1020.7
265,2020-04-06T04:24:00,0.4,東,1.4,南西,3.8,81.2,0,0,0,0,0,0,1006.2,1020.7
266,2020-04-06T04:25:00,0.4,東南東,1.4,南西,3.7,80.8,0,0,0,0,0,0,1006.1,1020.6
267,2020-04-06T04:26:00,0.4,西北西,1.4,南西,3.7,80.6,0,0,0,0,0,0,1006.2,1020.7
268,2020-04-06T04:27:00,0.4,西南西,1.4,南西,3.9,81.6,0,0,0,0,0,0,1006.2,1020.7
269,2020-04-06T04:28:00,0.4,南南西,1.4,南西,3.8,81.1,0,0,0,0,0,0,1006.2,1020.7
270,2020-04-06T04:29:00,0.4,南東,1.4,南西,3.7,80.1,0,0,0,0,0,0,1006.2,1020.7
271,2020-04-06T04:30:00,0.4,東,1.4,南西,3.7,80.4,0,0,0,0,0,0,1006.2,1020.7
272,2020-04-06T04:31:00,0.3,東,1.1,東北東,3.6,80.4,0,0,0,0,0,0,1006.2,1020.7
273,2020-04-06T04:32:00,0.3,東,1.1,東北東,3.5,80.4,0,0,0,0,0,0,1006.2,1020.7
274,2020-04-06T04:33:00,0.2,静穏,1.1,東北東,3.5,80.6,0,0,0,0,0,0,1006.2,1020.7
275,2020-04-06T04:34:00,0.2,静穏,1.1,東北東,3.5,81.3,0,0,0,0,0,0,1006.3,1020.8
276,2020-04-06T04:35:00,0.3,西北西,1.7,西,3.2,80.6,0,0,0,0,0,0,1006.2,1020.7
277,2020-04-06T04:36:00,0.4,西北西,1.7,西,3.3,81.8,0,0,0,0,0,0,1006.3,1020.8
278,2020-04-06T04:37:00,0.4,西,1.7,西,3.3,82,0,0,0,0,0,0,1006.2,1020.7
279,2020-04-06T04:38:00,0.4,西南西,1.7,西,3.5,82.4,0,0,0,0,0,0,1006.2,1020.7
280,2020-04-06T04:39:00,0.4,西,1.7,西,3.7,83,0,0,0,0,0,0,1006.3,1020.8
281,2020-04-06T04:40:00,0.4,西,1.7,西,3.7,82.8,0,0,0,0,0,0,1006.4,1020.9
282,2020-04-06T04:41:00,0.4,西,1.7,西,3.6,82.1,0,0,0,0,0,0,1006.4,1020.9
283,2020-04-06T04:42:00,0.4,西,1.7,西,3.4,81.1,0,0,0,0,0,0,1006.3,1020.8
284,2020-04-06T04:43:00,0.4,西,1.7,西,3.7,82,0,0,0,0,0,0,1006.4,1020.9
285,2020-04-06T04:44:00,0.5,西,1.7,西,3.6,82.1,0,0,0,0,0,0,1006.4,1020.9
286,2020-04-06T04:45:00,0.4,西南西,1.2,南西,3.7,81.6,0,0,0,0,0,0,1006.4,1020.9
287,2020-04-06T04:46:00,0.5,西南西,1.5,南南西,3.5,81.2,0,0,0,0,0,0,1006.4,1020.9
288,2020-04-06T04:47:00,0.5,西南西,1.5,南南西,3.3,80.6,0,0,0,0,0,0,1006.4,1020.9
289,2020-04-06T04:48:00,0.5,西南西,1.5,南南西,3.7,82.1,0,0,0,0,0,0,1006.4,1020.9
290,2020-04-06T04:49:00,0.5,南西,1.5,南南西,3.4,82.3,0,0,0,0,0,0,1006.4,1020.9
291,2020-04-06T04:50:00,0.5,南西,1.5,南南西,3.7,81.9,0,0,0,0,0,0,1006.5,1021
292,2020-04-06T04:51:00,0.5,南西,1.5,南南西,3.3,81.5,0,0,0,0,0,0,1006.5,1021
293,2020-04-06T04:52:00,0.6,南西,1.5,南南西,3.2,81.4,0,0,0,0,0,0,1006.5,1021
294,2020-04-06T04:53:00,0.6,南西,1.5,南南西,3.6,82.8,0,0,0,0,0,0,1006.5,1021
295,2020-04-06T04:54:00,0.6,南西,1.5,南南西,3.6,84.2,0,0,0,0,0,0,1006.6,1021.1
296,2020-04-06T04:55:00,0.6,南西,1.5,南南西,3.2,82.4,0,0,0,0,0,0,1006.5,1021
297,2020-04-06T04:56:00,0.6,南西,2,南南西,3.4,81.9,0,0,0,0,0,0,1006.5,1021
298,2020-04-06T04:57:00,0.7,南西,2.2,南南西,3.3,82.9,0,0,0,0,0,0,1006.5,1021
299,2020-04-06T04:58:00,0.8,南西,2.2,南南西,3.2,82.6,0,0,0,0,0,0,1006.5,1021
300,2020-04-06T04:59:00,0.8,南西,2.2,南南西,3.5,83.8,0,0,0,0,0,0,1006.6,1021.1
301,2020-04-06T05:00:00,0.8,南西,2.2,南南西,3.6,84.8,0,0,0,0,0,0,1006.6,1021.1
302,2020-04-06T05:01:00,0.8,西南西,2.2,南南西,3.5,84.1,0,0,0,0,0,0,1006.6,1021.1
303,2020-04-06T05:02:00,0.8,西南西,2.2,南南西,3.2,82.9,0,0,0,0,0,0,1006.6,1021.1
304,2020-04-06T05:03:00,0.7,西南西,2.2,南南西,3.4,83.4,0,0,0,0,0,0,1006.6,1021.1
305,2020-04-06T05:04:00,0.7,西南西,2.2,南南西,3.7,84.1,0,0,0,0,0,0,1006.6,1021.1
306,2020-04-06T05:05:00,0.7,西南西,2.2,南南西,3.4,83.9,0,0,0,0,0,0,1006.7,1021.2
307,2020-04-06T05:06:00,0.6,西南西,2.2,南南西,3.2,82.9,0,0,0,0,0,0,1006.6,1021.1
308,2020-04-06T05:07:00,0.5,西南西,1.8,南南西,3.2,82,0,0,0,0,0,0,1006.6,1021.1
309,2020-04-06T05:08:00,0.5,西南西,1.4,南西,3.5,84,0,0,0,0,0,0,1006.6,1021.1
310,2020-04-06T05:09:00,0.5,西南西,1.4,南西,3.2,82.4,0,0,0,0,0,0,1006.6,1021.1
311,2020-04-06T05:10:00,0.4,西南西,1.4,南西,3.4,83,0,0,0,0,0,0,1006.7,1021.2
312,2020-04-06T05:11:00,0.5,西南西,1.4,南西,3.5,83.4,0,0,0,0,0,0,1006.7,1021.2
313,2020-04-06T05:12:00,0.5,西南西,1.4,南西,3.5,83.1,0,0,0,0,0,0,1006.6,1021.1
314,2020-04-06T05:13:00,0.5,西,1.4,南西,3.4,82.7,0,0,0,0,0,0,1006.7,1021.2
315,2020-04-06T05:14:00,0.5,西,1.4,南西,3.3,82,0,0,0,0,0,0,1006.7,1021.2
316,2020-04-06T05:15:00,0.6,西,1.4,南西,3,81.8,0,0,0,0,0,0,1006.7,1021.2
317,2020-04-06T05:16:00,0.5,西南西,1.2,西,3,82,0,0,0,0,0,0,1006.7,1021.2
318,2020-04-06T05:17:00,0.5,西南西,1.2,西,3,82.6,0,0,0,0,0,0,1006.7,1021.2
319,2020-04-06T05:18:00,0.5,西南西,1.2,西,3.1,82.5,0,0,0,0,0,0,1006.7,1021.2
320,2020-04-06T05:19:00,0.5,西,1.2,西,3.5,84.4,0,0,0,0,0,0,1006.8,1021.3
321,2020-04-06T05:20:00,0.6,西,1.2,西,3.5,84.6,0,0,0,0,0,0,1006.8,1021.3
322,2020-04-06T05:21:00,0.6,西,1.2,西,3.7,84.3,0,0,0,0,0,0,1006.8,1021.3
323,2020-04-06T05:22:00,0.5,西,1.2,西,3.7,83.4,0,0,0,0,0,0,1006.8,1021.3
324,2020-04-06T05:23:00,0.5,西,1.2,西,3.4,81.9,0,0,0,0,0,0,1006.8,1021.3
325,2020-04-06T05:24:00,0.5,西,1.1,南南西,3.6,81.9,0,0,0,0,0,0,1006.8,1021.3
326,2020-04-06T05:25:00,0.5,西,1.2,北西,3.6,82.5,0,0,0,0,0,0,1006.9,1021.4
327,2020-04-06T05:26:00,0.5,西北西,1.2,北西,3.6,81.9,0,0,0,0,0,0,1006.9,1021.4
328,2020-04-06T05:27:00,0.5,西北西,1.2,北西,3.7,81.8,0,0,0,0,0,0,1006.9,1021.4
329,2020-04-06T05:28:00,0.5,北西,1.2,北西,3.6,81.3,0,0,0,0,0,0,1006.9,1021.4
330,2020-04-06T05:29:00,0.5,北西,1.2,北西,3.5,81.1,0,0,0,0,0,0,1006.9,1021.4
331,2020-04-06T05:30:00,0.4,北北西,1.2,北西,3.3,80.9,0,0,0,0,0,0,1006.9,1021.4